| time (UTC) | temp C | wind direction | speed KPH | gust KPH | rain 1hr cm | rain 24hr cm | rain mn cm | humidity % | barometer mb |
| 20260507232418 | 9 | 169 | 6.4 | 9.7 | 0.00 | 0.00 | 0.00 | 77 | 1011.8 |
| 20260507231519 | 9 | 270 | 4.8 | 6.4 | 0.00 | 0.00 | 0.00 | 77 | 1011.9 |
| 20260507230619 | 9 | 250 | 6.4 | 14.5 | 0.00 | 0.00 | 0.00 | 77 | 1011.9 |
| 20260507224818 | 10 | 208 | 6.4 | 9.7 | 0.00 | 0.00 | 0.00 | 76 | 1011.6 |
| 20260507223918 | 10 | 221 | 6.4 | 12.9 | 0.00 | 0.00 | 0.00 | 76 | 1011.5 |
| 20260507221218 | 10 | 49 | 6.4 | 14.5 | 0.00 | 0.00 | 0.00 | 76 | 1011.6 |
| 20260507220318 | 10 | 236 | 4.8 | 9.7 | 0.00 | 0.00 | 0.00 | 77 | 1011.5 |
| 20260507215418 | 9 | 55 | 6.4 | 9.7 | 0.00 | 0.00 | 0.00 | 76 | 1011.6 |
| 20260507214519 | 9 | 337 | 3.2 | 6.4 | 0.00 | 0.00 | 0.00 | 79 | 1011.8 |
| 20260507213618 | 9 | 206 | 4.8 | 12.9 | 0.00 | 0.00 | 0.00 | 79 | 1011.7 |
| 20260507211818 | 9 | 244 | 6.4 | 14.5 | 0.00 | 0.00 | 0.00 | 79 | 1011.7 |
| 20260507210019 | 9 | 202 | 4.8 | 9.7 | 0.00 | 0.00 | 0.00 | 78 | 1011.8 |
| 20260507204218 | 9 | 171 | 3.2 | 6.4 | 0.00 | 0.00 | 0.00 | 77 | 1012.0 |
| 20260507203318 | 9 | 68 | 3.2 | 6.4 | 0.00 | 0.00 | 0.00 | 78 | 1011.8 |
| 20260507202418 | 10 | 149 | 3.2 | 6.4 | 0.00 | 0.00 | 0.00 | 77 | 1011.9 |
| 20260507195718 | 10 | 194 | 4.8 | 9.7 | 0.00 | 0.00 | 0.00 | 76 | 1012.1 |
| 20260507194818 | 10 | 184 | 4.8 | 6.4 | 0.00 | 0.00 | 0.00 | 75 | 1011.8 |
| 20260507193918 | 10 | 168 | 3.2 | 6.4 | 0.00 | 0.00 | 0.00 | 75 | 1011.8 |
| 20260507191218 | 10 | 175 | 4.8 | 11.3 | 0.00 | 0.00 | 0.00 | 74 | 1011.8 |
| 20260507190318 | 10 | 195 | 8.0 | 11.3 | 0.00 | 0.00 | 0.00 | 73 | 1011.6 |
| 20260507184519 | 11 | 198 | 4.8 | 6.4 | 0.00 | 0.00 | 0.00 | 73 | 1011.7 |
| 20260507183618 | 11 | 183 | 1.6 | 9.7 | 0.00 | 0.00 | 0.00 | 73 | 1011.6 |
| 20260507180919 | 11 | 207 | 6.4 | 12.9 | 0.00 | 0.00 | 0.00 | 71 | 1011.4 |
| 20260507180019 | 11 | 186 | 4.8 | 9.7 | 0.00 | 0.00 | 0.00 | 70 | 1011.1 |
| 20260507175118 | 11 | 205 | 4.8 | 6.4 | 0.00 | 0.00 | 0.00 | 69 | 1011.0 |
| 20260507173318 | 11 | 194 | 9.7 | 20.9 | 0.00 | 0.00 | 0.00 | 67 | 1011.0 |
| 20260507171519 | 12 | 198 | 6.4 | 12.9 | 0.00 | 0.00 | 0.00 | 66 | 1011.3 |
| 20260507170619 | 12 | 177 | 11.3 | 20.9 | 0.00 | 0.00 | 0.00 | 66 | 1011.3 |
| 20260507165719 | 12 | 192 | 9.7 | 17.7 | 0.00 | 0.00 | 0.00 | 65 | 1011.2 |
| 20260507164819 | 12 | 198 | 8.0 | 12.9 | 0.00 | 0.00 | 0.00 | 64 | 1011.3 |
| 20260507163918 | 12 | 193 | 9.7 | 14.5 | 0.00 | 0.00 | 0.00 | 66 | 1011.3 |
| 20260507163019 | 12 | 202 | 9.7 | 14.5 | 0.00 | 0.00 | 0.00 | 64 | 1011.4 |
| 20260507162119 | 12 | 182 | 8.0 | 12.9 | 0.00 | 0.00 | 0.00 | 64 | 1011.3 |
| 20260507161219 | 12 | 192 | 6.4 | 12.9 | 0.00 | 0.00 | 0.00 | 62 | 1011.4 |
| 20260507160318 | 12 | 182 | 6.4 | 12.9 | 0.00 | 0.00 | 0.00 | 63 | 1011.3 |
| 20260507155419 | 12 | 188 | 9.7 | 14.5 | 0.00 | 0.00 | 0.00 | 62 | 1011.3 |
| 20260507154519 | 12 | 203 | 8.0 | 14.5 | 0.00 | 0.00 | 0.00 | 62 | 1011.5 |
| 20260507153618 | 12 | 216 | 8.0 | 17.7 | 0.00 | 0.00 | 0.00 | 60 | 1011.3 |
| 20260507152718 | 12 | 204 | 11.3 | 20.9 | 0.00 | 0.00 | 0.00 | 58 | 1011.5 |
| 20260507151819 | 12 | 188 | 9.7 | 20.9 | 0.00 | 0.00 | 0.00 | 57 | 1011.4 |
| 20260507150919 | 12 | 203 | 8.0 | 17.7 | 0.00 | 0.00 | 0.00 | 59 | 1011.4 |
| 20260507150019 | 12 | 185 | 14.5 | 17.7 | 0.00 | 0.00 | 0.00 | 61 | 1011.4 |
| 20260507145119 | 12 | 200 | 11.3 | 17.7 | 0.00 | 0.00 | 0.00 | 62 | 1011.5 |
| 20260507144218 | 12 | 217 | 8.0 | 17.7 | 0.00 | 0.00 | 0.00 | 59 | 1011.4 |
| 20260507143319 | 12 | 196 | 9.7 | 22.5 | 0.00 | 0.00 | 0.00 | 61 | 1011.5 |
| 20260507140618 | 12 | 223 | 6.4 | 17.7 | 0.00 | 0.00 | 0.00 | 61 | 1011.8 |
| 20260507135718 | 12 | 242 | 4.8 | 9.7 | 0.00 | 0.00 | 0.00 | 62 | 1011.9 |
| 20260507134819 | 12 | 236 | 4.8 | 11.3 | 0.00 | 0.00 | 0.00 | 63 | 1011.9 |
| 20260507133918 | 11 | 252 | 4.8 | 9.7 | 0.00 | 0.00 | 0.00 | 66 | 1011.8 |
| 20260507131219 | 11 | 200 | 3.2 | 9.7 | 0.00 | 0.00 | 0.00 | 66 | 1012.0 |
| 20260507125419 | 11 | 191 | 4.8 | 14.5 | 0.00 | 0.00 | 0.00 | 65 | 1012.3 |
| 20260507124519 | 11 | 181 | 11.3 | 17.7 | 0.00 | 0.00 | 0.00 | 63 | 1012.4 |
| 20260507122718 | 12 | 197 | 8.0 | 12.9 | 0.00 | 0.00 | 0.00 | 61 | 1012.2 |
| 20260507121818 | 12 | 188 | 4.8 | 11.3 | 0.00 | 0.00 | 0.00 | 63 | 1012.2 |
| 20260507120919 | 12 | 167 | 4.8 | 6.4 | 0.00 | 0.00 | 0.00 | 64 | 1012.4 |
| 20260507120019 | 12 | 147 | 3.2 | 6.4 | 0.00 | 0.00 | 0.00 | 65 | 1012.3 |
| 20260507114219 | 11 | 181 | 4.8 | 9.7 | 0.00 | 0.00 | 0.00 | 67 | 1012.6 |
| 20260507113319 | 11 | 155 | 3.2 | 6.4 | 0.00 | 0.00 | 0.00 | 69 | 1012.4 |
| 20260507112419 | 10 | 166 | 4.8 | 11.3 | 0.00 | 0.00 | 0.00 | 69 | 1012.6 |
| 20260507111520 | 10 | 174 | 6.4 | 11.3 | 0.00 | 0.00 | 0.00 | 69 | 1012.7 |
| 20260507110619 | 10 | 186 | 4.8 | 9.7 | 0.00 | 0.00 | 0.00 | 71 | 1012.7 |
| 20260507105719 | 10 | 191 | 3.2 | 3.2 | 0.00 | 0.00 | 0.00 | 70 | 1012.7 |
| 20260507103919 | 9 | 156 | 4.8 | 9.7 | 0.00 | 0.00 | 0.00 | 70 | 1012.9 |
| 20260507103019 | 9 | 22 | 3.2 | 6.4 | 0.00 | 0.00 | 0.00 | 70 | 1012.6 |
| 20260507102119 | 10 | 37 | 3.2 | 9.7 | 0.00 | 0.00 | 0.00 | 70 | 1012.7 |
| 20260507101219 | 10 | 172 | 4.8 | 9.7 | 0.00 | 0.00 | 0.00 | 71 | 1012.5 |
| 20260507100319 | 10 | 169 | 3.2 | 6.4 | 0.00 | 0.00 | 0.00 | 69 | 1012.5 |
| 20260507095419 | 10 | 174 | 3.2 | 6.4 | 0.00 | 0.00 | 0.00 | 68 | 1012.6 |
| 20260507094519 | 10 | 179 | 4.8 | 6.4 | 0.00 | 0.00 | 0.00 | 67 | 1012.6 |
| 20260507093619 | 10 | 166 | 4.8 | 9.7 | 0.00 | 0.00 | 0.00 | 67 | 1012.3 |
| 20260507092719 | 11 | 167 | 3.2 | 6.4 | 0.00 | 0.00 | 0.00 | 67 | 1012.5 |
| 20260507091819 | 11 | 159 | 8.0 | 14.5 | 0.00 | 0.00 | 0.00 | 67 | 1012.3 |
| 20260507090919 | 11 | 158 | 4.8 | 6.4 | 0.00 | 0.00 | 0.00 | 68 | 1012.2 |
| 20260507090019 | 11 | 140 | 3.2 | 6.4 | 0.00 | 0.00 | 0.00 | 67 | 1011.9 |
| 20260507085119 | 11 | 129 | 3.2 | 6.4 | 0.00 | 0.00 | 0.00 | 67 | 1012.3 |
| 20260507084219 | 11 | 134 | 3.2 | 6.4 | 0.00 | 0.00 | 0.00 | 67 | 1012.2 |
| 20260507082419 | 12 | 22 | 3.2 | 6.4 | 0.00 | 0.00 | 0.00 | 64 | 1012.3 |
| 20260507081519 | 11 | 156 | 4.8 | 6.4 | 0.00 | 0.00 | 0.00 | 67 | 1012.2 |
| 20260507080619 | 11 | 253 | 3.2 | 6.4 | 0.00 | 0.00 | 0.00 | 68 | 1012.4 |
| 20260507075719 | 10 | 176 | 3.2 | 3.2 | 0.00 | 0.00 | 0.00 | 67 | 1012.5 |
| 20260507073919 | 10 | 192 | 3.2 | 3.2 | 0.00 | 0.00 | 0.00 | 69 | 1012.5 |
| 20260507073019 | 10 | 163 | 4.8 | 6.4 | 0.00 | 0.00 | 0.00 | 70 | 1012.5 |
| 20260507072119 | 9 | 175 | 6.4 | 6.4 | 0.00 | 0.00 | 0.00 | 72 | 1012.4 |
| 20260507071219 | 8 | 165 | 4.8 | 9.7 | 0.00 | 0.00 | 0.00 | 73 | 1012.2 |
| 20260507065419 | 7 | 192 | 6.4 | 14.5 | 0.00 | 0.00 | 0.00 | 77 | 1012.3 |
| 20260507064519 | 7 | 163 | 4.8 | 9.7 | 0.00 | 0.00 | 0.00 | 77 | 1012.4 |
| 20260507063620 | 6 | 181 | 6.4 | 9.7 | 0.00 | 0.00 | 0.00 | 79 | 1012.4 |
| 20260507062719 | 6 | 158 | 4.8 | 9.7 | 0.00 | 0.00 | 0.00 | 78 | 1012.5 |
| 20260507061819 | 6 | 163 | 4.8 | 6.4 | 0.00 | 0.00 | 0.00 | 79 | 1012.5 |
| 20260507060919 | 6 | 150 | 3.2 | 6.4 | 0.00 | 0.00 | 0.00 | 80 | 1012.5 |
| 20260507060019 | 5 | 152 | 4.8 | 6.4 | 0.00 | 0.00 | 0.00 | 80 | 1012.6 |
| 20260507055119 | 5 | 176 | 8.0 | 11.3 | 0.00 | 0.00 | 0.00 | 80 | 1012.5 |
| 20260507054219 | 5 | 171 | 4.8 | 6.4 | 0.00 | 0.00 | 0.00 | 81 | 1012.6 |
| 20260507052419 | 4 | 172 | 3.2 | 6.4 | 0.00 | 0.00 | 0.00 | 81 | 1012.7 |
| 20260507051519 | 4 | 178 | 3.2 | 3.2 | 0.00 | 0.00 | 0.00 | 81 | 1012.7 |
| 20260507045719 | 3 | 135 | 3.2 | 6.4 | 0.00 | 0.00 | 0.00 | 82 | 1012.7 |
| 20260507044819 | 3 | 158 | 3.2 | 6.4 | 0.00 | 0.00 | 0.00 | 82 | 1012.5 |
| 20260507043019 | 4 | 148 | 4.8 | 9.7 | 0.00 | 0.00 | 0.00 | 82 | 1012.6 |
| 20260507042119 | 3 | 169 | 3.2 | 6.4 | 0.00 | 0.00 | 0.00 | 82 | 1012.5 |
| 20260507041219 | 3 | 171 | 3.2 | 3.2 | 0.00 | 0.00 | 0.00 | 83 | 1012.7 |
| 20260507035419 | 4 | 324 | 3.2 | 6.4 | 0.00 | 0.00 | 0.00 | 82 | 1012.7 |
| 20260507034520 | 4 | 113 | 1.6 | 3.2 | 0.00 | 0.00 | 0.00 | 81 | 1012.6 |
| 20260507033619 | 4 | 98 | 3.2 | 6.4 | 0.00 | 0.00 | 0.00 | 80 | 1012.7 |
| 20260507030919 | 4 | 158 | 4.8 | 6.4 | 0.00 | 0.00 | 0.00 | 80 | 1013.0 |
| 20260507030020 | 4 | 154 | 3.2 | 6.4 | 0.00 | 0.00 | 0.00 | 80 | 1012.9 |
| 20260507025119 | 5 | 154 | 4.8 | 6.4 | 0.00 | 0.00 | 0.00 | 79 | 1012.9 |
| 20260507024219 | 5 | 164 | 4.8 | 6.4 | 0.00 | 0.00 | 0.00 | 78 | 1012.7 |
| 20260507023320 | 5 | 158 | 4.8 | 6.4 | 0.00 | 0.00 | 0.00 | 77 | 1012.6 |
| 20260507022419 | 5 | 179 | 4.8 | 9.7 | 0.00 | 0.00 | 0.00 | 77 | 1013.0 |
| 20260507021519 | 5 | 161 | 4.8 | 6.4 | 0.00 | 0.00 | 0.00 | 78 | 1012.6 |
| 20260507020619 | 5 | 175 | 6.4 | 9.7 | 0.00 | 0.00 | 0.00 | 77 | 1012.9 |
| 20260507015719 | 5 | 247 | 6.4 | 6.4 | 0.00 | 0.00 | 0.00 | 77 | 1012.9 |
| 20260507014819 | 5 | 170 | 4.8 | 6.4 | 0.00 | 0.00 | 0.00 | 78 | 1012.8 |
| 20260507013919 | 5 | 172 | 6.4 | 9.7 | 0.00 | 0.00 | 0.00 | 77 | 1012.7 |
| 20260507013020 | 5 | 139 | 6.4 | 11.3 | 0.00 | 0.00 | 0.00 | 76 | 1013.0 |
| 20260507011219 | 5 | 154 | 8.0 | 9.7 | 0.00 | 0.00 | 0.00 | 76 | 1013.1 |
| 20260507005419 | 5 | 160 | 6.4 | 9.7 | 0.00 | 0.00 | 0.00 | 78 | 1013.1 |
| 20260507004519 | 5 | 161 | 6.4 | 6.4 | 0.00 | 0.00 | 0.00 | 78 | 1013.3 |
| 20260507002719 | 5 | 206 | 4.8 | 6.4 | 0.00 | 0.00 | 0.00 | 77 | 1013.4 |
| 20260507001819 | 5 | 154 | 3.2 | 6.4 | 0.00 | 0.00 | 0.00 | 76 | 1013.3 |
| 20260507000020 | 5 | 170 | 3.2 | 6.4 | 0.00 | 0.00 | 0.00 | 75 | 1013.6 |
| 20260506234219 | 5 | 133 | 1.6 | 3.2 | 0.00 | 0.00 | 0.00 | 75 | 1013.8 |